QPF
0.00 0.01 0.01 0.01 0.00 0.00 0.00 0.00 0.00 0.00 0.00 0.00 0.00 0.00 0.00 0.00 0.00 0.00 0.00 0.00 0.00 0.00 0.00 0.00 0.00 0.00 0.00 0.00 0.00 0.00 0.00 0.00 0.00 0.00 0.00 0.00 0.00 0.00 0.00 0.00 0.00 0.00 0.01 0.01
0.00 0.00 0.01 0.01 0.00 0.00 0.00 0.00 0.00 0.00 0.00 0.00 0.00 0.00 0.00 0.00 0.00 0.00 0.00 0.00 0.00 0.00 0.00 0.00 0.00 0.00 0.00 0.00 0.00 0.00 0.00 0.00 0.00 0.00 0.00 0.00 0.00 0.00 0.00 0.00 0.00 0.00 0.00 0.00
0.00 0.01 0.01 0.01 0.00 0.00 0.00 0.00 0.00 0.00 0.00 0.00 0.00 0.00 0.00 0.00 0.00 0.00 0.00 0.00 0.00 0.00 0.00 0.00 0.00 0.00 0.00 0.00 0.00 0.00 0.00 0.00 0.00 0.00 0.00 0.00 0.00 0.00 0.00 0.00 0.00 0.00 0.00 0.00
0.00 0.00 0.00 0.00 0.00 0.00 0.00 0.00 0.00 0.00 0.00 0.00 0.00 0.00 0.00 0.00 0.00 0.00 0.00 0.00 0.00 0.00 0.00 0.00 0.00 0.00 0.00 0.00 0.00 0.00 0.00 0.00 0.00 0.00 0.00 0.00 0.00 0.00 0.00 0.00 0.00 0.01 0.00 0.01
0.00 0.00 0.01 0.01 0.02 0.01 0.00 0.00 0.00 0.00 0.00 0.00 0.00 0.00 0.00 0.00 0.00 0.00 0.00 0.00 0.00 0.00 0.00 0.00 0.00 0.00 0.00 0.00 0.00 0.00 0.00 0.00 0.00 0.00 0.00 0.00 0.00 0.00 0.00 0.00 0.00 0.00 0.01 0.01
0.00 0.00 0.01 0.02 0.04 0.02 0.01 0.01 0.01 0.01 0.00 0.00 0.00 0.00 0.00 0.00 0.00 0.00 0.00 0.00 0.00 0.00 0.00 0.00 0.00 0.00 0.00 0.00 0.00 0.00 0.00 0.00 0.00 0.00 0.00 0.00 0.00 0.00 0.00 0.00 0.00 0.00 0.01 0.01
0.00 0.00 0.00 0.02 0.02 0.02 0.04 0.04 0.02 0.01 0.01 0.00 0.00 0.00 0.00 0.00 0.00 0.00 0.00 0.00 0.00 0.00 0.00 0.00 0.00 0.00 0.00 0.00 0.00 0.00 0.00 0.00 0.00 0.00 0.00 0.00 0.00 0.01 0.01 0.01 0.01 0.01 0.01 0.02
0.01 0.02 0.03 0.03 0.03 0.03 0.03 0.02 0.01 0.01 0.00 0.00 0.00 0.00 0.00 0.00 0.00 0.00 0.00 0.00 0.00 0.00 0.00 0.00 0.00 0.00 0.00 0.00 0.00 0.00 0.00 0.00 0.00 0.00 0.00 0.00 0.01 0.01 0.01 0.01 0.01 0.01 0.02 0.03
0.01 0.03 0.03 0.04 0.03 0.02 0.02 0.01 0.00 0.00 0.00 0.00 0.00 0.00 0.00 0.00 0.00 0.00 0.00 0.00 0.00 0.00 0.00 0.00 0.00 0.00 0.00 0.00 0.01 0.00 0.00 0.00 0.01 0.01 0.01 0.01 0.01 0.01 0.01 0.01 0.01 0.01 0.02 0.03
0.01 0.02 0.03 0.04 0.02 0.01 0.00 0.00 0.00 0.00 0.00 0.00 0.00 0.00 0.00 0.00 0.00 0.00 0.00 0.00 0.00 0.00 0.00 0.00 0.00 0.00 0.00 0.00 0.00 0.00 0.01 0.01 0.01 0.01 0.01 0.01 0.01 0.00 0.00 0.00 0.00 0.01 0.02 0.02
0.03 0.03 0.05 0.05 0.03 0.01 0.00 0.00 0.00 0.00 0.00 0.00 0.00 0.00 0.00 0.00 0.00 0.00 0.00 0.00 0.00 0.00 0.00 0.00 0.00 0.00 0.00 0.00 0.00 0.01 0.01 0.01 0.01 0.01 0.01 0.01 0.01 0.01 0.00 0.00 0.01 0.01 0.01 0.01
0.02 0.01 0.02 0.03 0.02 0.00 0.00 0.00 0.00 0.00 0.00 0.00 0.00 0.00 0.00 0.00 0.00 0.00 0.00 0.00 0.00 0.00 0.00 0.00 0.00 0.00 0.00 0.00 0.01 0.01 0.01 0.02 0.02 0.01 0.01 0.00 0.00 0.01 0.01 0.01 0.01 0.01 0.00 0.00
0.01 0.01 0.00 0.00 0.00 0.00 0.00 0.00 0.00 0.00 0.00 0.00 0.00 0.00 0.00 0.00 0.00 0.00 0.00 0.00 0.00 0.00 0.00 0.00 0.00 0.00 0.00 0.01 0.02 0.02 0.02 0.01 0.01 0.01 0.00 0.00 0.00 0.01 0.01 0.01 0.01 0.01 0.01 0.01
0.02 0.01 0.00 0.00 0.00 0.00 0.00 0.00 0.00 0.00 0.00 0.00 0.00 0.00 0.00 0.00 0.00 0.00 0.00 0.00 0.00 0.00 0.00 0.00 0.00 0.00 0.00 0.01 0.02 0.02 0.02 0.02 0.02 0.02 0.01 0.00 0.00 0.00 0.00 0.00 0.01 0.02 0.02 0.02
0.01 0.00 0.00 0.00 0.00 0.00 0.00 0.00 0.00 0.00 0.00 0.00 0.00 0.00 0.00 0.00 0.00 0.00 0.00 0.00 0.00 0.00 0.00 0.00 0.00 0.00 0.00 0.01 0.01 0.02 0.02 0.02 0.03 0.02 0.01 0.01 0.01 0.01 0.00 0.01 0.01 0.02 0.04 0.05
0.01 0.00 0.00 0.00 0.00 0.00 0.00 0.00 0.00 0.00 0.00 0.00 0.00 0.00 0.00 0.00 0.00 0.00 0.00 0.00 0.00 0.00 0.00 0.00 0.00 0.00 0.00 0.00 0.01 0.02 0.02 0.02 0.02 0.02 0.01 0.01 0.01 0.01 0.01 0.01 0.02 0.03 0.05 0.06
0.00 0.00 0.00 0.00 0.00 0.00 0.00 0.00 0.00 0.00 0.00 0.00 0.00 0.00 0.00 0.00 0.00 0.00 0.00 0.00 0.00 0.00 0.00 0.00 0.00 0.00 0.00 0.00 0.00 0.01 0.01 0.01 0.02 0.01 0.01 0.01 0.01 0.01 0.01 0.02 0.03 0.04 0.05 0.06
0.00 0.00 0.00 0.00 0.00 0.00 0.00 0.00 0.00 0.00 0.00 0.00 0.00 0.00 0.00 0.00 0.00 0.00 0.00 0.00 0.00 0.00 0.00 0.00 0.00 0.00 0.00 0.00 0.01 0.01 0.01 0.01 0.01 0.01 0.01 0.02 0.02 0.02 0.03 0.03 0.04 0.05 0.06 0.07
0.00 0.00 0.00 0.00 0.00 0.00 0.00 0.00 0.00 0.00 0.00 0.00 0.00 0.00 0.00 0.00 0.00 0.00 0.00 0.00 0.00 0.00 0.00 0.00 0.00 0.00 0.00 0.00 0.00 0.01 0.01 0.01 0.01 0.02 0.03 0.04 0.04 0.04 0.04 0.04 0.04 0.05 0.07 0.09
0.00 0.00 0.00 0.00 0.00 0.00 0.00 0.00 0.00 0.00 0.00 0.00 0.00 0.00 0.00 0.00 0.00 0.00 0.00 0.00 0.00 0.00 0.00 0.00 0.00 0.00 0.00 0.00 0.00 0.00 0.00 0.01 0.02 0.03 0.04 0.06 0.06 0.06 0.06 0.05 0.05 0.06 0.08 0.11
0.00 0.00 0.00 0.00 0.00 0.00 0.00 0.00 0.00 0.00 0.00 0.00 0.00 0.00 0.00 0.00 0.00 0.00 0.00 0.00 0.00 0.00 0.00 0.00 0.00 0.00 0.00 0.00 0.00 0.00 0.00 0.01 0.02 0.04 0.05 0.06 0.07 0.07 0.06 0.06 0.07 0.08 0.09 0.10
0.00 0.00 0.00 0.00 0.00 0.00 0.00 0.00 0.00 0.00 0.00 0.00 0.00 0.00 0.00 0.00 0.00 0.00 0.00 0.01 0.00 0.00 0.00 0.00 0.00 0.00 0.00 0.00 0.00 0.01 0.01 0.02 0.04 0.07 0.08 0.09 0.09 0.08 0.07 0.07 0.09 0.11 0.10 0.09
0.00 0.00 0.00 0.00 0.00 0.00 0.00 0.00 0.00 0.00 0.00 0.00 0.00 0.00 0.00 0.00 0.00 0.00 0.01 0.00 0.00 0.00 0.00 0.00 0.00 0.00 0.00 0.00 0.01 0.02 0.03 0.05 0.08 0.10 0.11 0.11 0.11 0.10 0.08 0.07 0.08 0.08 0.09 0.08
0.00 0.00 0.00 0.00 0.00 0.00 0.00 0.00 0.00 0.00 0.00 0.00 0.00 0.00 0.00 0.00 0.00 0.01 0.01 0.00 0.01 0.00 0.00 0.01 0.01 0.01 0.01 0.02 0.04 0.05 0.06 0.06 0.07 0.08 0.10 0.11 0.11 0.10 0.09 0.08 0.08 0.08 0.08 0.07
0.00 0.00 0.00 0.00 0.00 0.00 0.00 0.00 0.00 0.00 0.00 0.00 0.00 0.00 0.00 0.00 0.01 0.02 0.02 0.01 0.01 0.01 0.01 0.02 0.01 0.02 0.03 0.04 0.05 0.06 0.06 0.07 0.08 0.10 0.11 0.12 0.12 0.11 0.08 0.06 0.06 0.06 0.06 0.06
0.00 0.00 0.00 0.00 0.00 0.00 0.00 0.00 0.00 0.00 0.00 0.00 0.00 0.00 0.00 0.00 0.01 0.02 0.03 0.02 0.02 0.01 0.02 0.03 0.03 0.03 0.03 0.04 0.06 0.08 0.09 0.09 0.10 0.11 0.12 0.12 0.12 0.10 0.08 0.05 0.04 0.04 0.04 0.03
0.00 0.00 0.00 0.00 0.00 0.00 0.00 0.00 0.00 0.00 0.00 0.00 0.00 0.00 0.01 0.02 0.03 0.03 0.02 0.02 0.03 0.02 0.03 0.03 0.04 0.04 0.04 0.06 0.07 0.09 0.11 0.11 0.12 0.13 0.13 0.11 0.08 0.05 0.05 0.03 0.03 0.03 0.02 0.02
MSLP
1009.59 1009.82 1009.94 1009.96 1009.87 1009.69 1009.42 1009.09 1008.71 1008.30 1007.90 1007.52 1007.21 1006.97 1006.84 1006.81 1006.90 1007.09 1007.38 1007.74 1008.16 1008.63 1009.11 1009.60 1010.08 1010.53 1010.95 1011.33 1011.66 1011.94 1012.17 1012.35 1012.50 1012.62 1012.71 1012.80 1012.89 1012.97 1013.06 1013.14 1013.21 1013.26 1013.30 1013.31
1009.52 1009.73 1009.80 1009.73 1009.53 1009.22 1008.83 1008.40 1007.96 1007.54 1007.16 1006.84 1006.61 1006.47 1006.43 1006.47 1006.60 1006.80 1007.07 1007.40 1007.78 1008.19 1008.64 1009.10 1009.57 1010.04 1010.48 1010.88 1011.23 1011.54 1011.79 1011.98 1012.14 1012.26 1012.37 1012.46 1012.55 1012.64 1012.73 1012.81 1012.88 1012.94 1012.96 1012.97
1009.48 1009.68 1009.71 1009.58 1009.30 1008.90 1008.43 1007.92 1007.43 1006.98 1006.60 1006.31 1006.11 1006.01 1005.99 1006.04 1006.16 1006.33 1006.55 1006.81 1007.13 1007.49 1007.90 1008.34 1008.82 1009.31 1009.80 1010.26 1010.68 1011.04 1011.35 1011.59 1011.78 1011.93 1012.05 1012.15 1012.24 1012.33 1012.40 1012.47 1012.53 1012.56 1012.57 1012.57
1009.51 1009.70 1009.72 1009.56 1009.24 1008.79 1008.26 1007.71 1007.17 1006.68 1006.28 1005.97 1005.77 1005.65 1005.60 1005.62 1005.68 1005.77 1005.91 1006.09 1006.32 1006.62 1006.98 1007.41 1007.90 1008.43 1008.97 1009.51 1010.01 1010.46 1010.85 1011.16 1011.41 1011.60 1011.73 1011.84 1011.92 1011.99 1012.04 1012.08 1012.10 1012.11 1012.09 1012.06
1009.59 1009.77 1009.79 1009.63 1009.31 1008.85 1008.31 1007.73 1007.17 1006.65 1006.22 1005.88 1005.63 1005.46 1005.35 1005.29 1005.26 1005.26 1005.29 1005.37 1005.51 1005.73 1006.04 1006.45 1006.94 1007.50 1008.09 1008.71 1009.29 1009.83 1010.30 1010.68 1010.98 1011.21 1011.37 1011.47 1011.54 1011.58 1011.59 1011.60 1011.58 1011.55 1011.51 1011.46
1009.64 1009.82 1009.85 1009.72 1009.43 1009.00 1008.48 1007.92 1007.36 1006.83 1006.38 1006.00 1005.70 1005.47 1005.29 1005.14 1005.02 1004.92 1004.84 1004.82 1004.86 1005.00 1005.25 1005.61 1006.08 1006.65 1007.27 1007.93 1008.57 1009.18 1009.70 1010.14 1010.49 1010.74 1010.91 1011.01 1011.05 1011.06 1011.04 1011.01 1010.96 1010.90 1010.83 1010.77
1009.56 1009.75 1009.81 1009.73 1009.50 1009.13 1008.67 1008.16 1007.63 1007.13 1006.67 1006.28 1005.96 1005.68 1005.44 1005.23 1005.03 1004.84 1004.68 1004.56 1004.51 1004.57 1004.74 1005.04 1005.46 1005.99 1006.61 1007.26 1007.92 1008.54 1009.09 1009.56 1009.92 1010.18 1010.34 1010.42 1010.45 1010.42 1010.37 1010.30 1010.23 1010.15 1010.08 1010.02
1009.30 1009.50 1009.61 1009.59 1009.44 1009.17 1008.80 1008.36 1007.91 1007.46 1007.04 1006.67 1006.35 1006.06 1005.80 1005.56 1005.31 1005.07 1004.84 1004.66 1004.54 1004.51 1004.59 1004.81 1005.15 1005.62 1006.16 1006.77 1007.39 1007.98 1008.50 1008.95 1009.29 1009.52 1009.66 1009.72 1009.71 1009.66 1009.58 1009.50 1009.41 1009.34 1009.28 1009.25
1008.86 1009.08 1009.24 1009.29 1009.24 1009.07 1008.81 1008.48 1008.12 1007.76 1007.41 1007.10 1006.82 1006.57 1006.33 1006.09 1005.85 1005.60 1005.35 1005.12 1004.94 1004.84 1004.84 1004.96 1005.20 1005.55 1006.00 1006.50 1007.02 1007.52 1007.98 1008.35 1008.63 1008.81 1008.90 1008.92 1008.87 1008.79 1008.70 1008.61 1008.53 1008.48 1008.46 1008.47
1008.29 1008.55 1008.76 1008.90 1008.94 1008.89 1008.74 1008.53 1008.28 1008.02 1007.77 1007.54 1007.34 1007.15 1006.97 1006.79 1006.58 1006.36 1006.12 1005.88 1005.67 1005.51 1005.43 1005.45 1005.57 1005.79 1006.09 1006.46 1006.84 1007.21 1007.55 1007.81 1007.99 1008.09 1008.11 1008.06 1007.97 1007.86 1007.75 1007.66 1007.60 1007.58 1007.61 1007.68
1007.74 1008.03 1008.31 1008.52 1008.65 1008.70 1008.66 1008.56 1008.42 1008.27 1008.12 1007.98 1007.87 1007.77 1007.68 1007.56 1007.43 1007.25 1007.05 1006.83 1006.61 1006.42 1006.27 1006.19 1006.19 1006.27 1006.42 1006.62 1006.85 1007.06 1007.24 1007.37 1007.42 1007.41 1007.33 1007.21 1007.06 1006.90 1006.77 1006.68 1006.64 1006.67 1006.75 1006.89
1007.34 1007.68 1008.00 1008.28 1008.49 1008.61 1008.67 1008.66 1008.61 1008.55 1008.48 1008.44 1008.41 1008.40 1008.38 1008.35 1008.29 1008.18 1008.03 1007.84 1007.62 1007.41 1007.21 1007.06 1006.95 1006.91 1006.91 1006.95 1007.00 1007.05 1007.07 1007.04 1006.95 1006.81 1006.62 1006.39 1006.17 1005.96 1005.80 1005.70 1005.68 1005.74 1005.88 1006.08
1007.19 1007.57 1007.94 1008.27 1008.53 1008.71 1008.82 1008.88 1008.89 1008.89 1008.89 1008.91 1008.95 1009.00 1009.04 1009.07 1009.07 1009.02 1008.92 1008.76 1008.56 1008.34 1008.12 1007.90 1007.72 1007.57 1007.45 1007.35 1007.25 1007.14 1007.00 1006.82 1006.58 1006.30 1005.99 1005.66 1005.35 1005.07 1004.86 1004.74 1004.72 1004.81 1004.98 1005.24
1007.33 1007.76 1008.16 1008.51 1008.80 1009.02 1009.16 1009.24 1009.29 1009.32 1009.35 1009.39 1009.46 1009.54 1009.61 1009.68 1009.71 1009.69 1009.62 1009.49 1009.30 1009.09 1008.85 1008.60 1008.37 1008.14 1007.93 1007.73 1007.51 1007.27 1007.00 1006.68 1006.30 1005.89 1005.45 1005.01 1004.60 1004.25 1003.98 1003.82 1003.79 1003.87 1004.07 1004.36
1007.74 1008.19 1008.61 1008.97 1009.27 1009.49 1009.63 1009.72 1009.77 1009.80 1009.82 1009.86 1009.92 1009.99 1010.06 1010.12 1010.15 1010.14 1010.07 1009.95 1009.78 1009.57 1009.33 1009.07 1008.81 1008.55 1008.29 1008.01 1007.71 1007.38 1007.00 1006.56 1006.07 1005.54 1004.99 1004.44 1003.93 1003.49 1003.16 1002.95 1002.88 1002.95 1003.15 1003.45
1008.32 1008.78 1009.20 1009.56 1009.84 1010.05 1010.18 1010.25 1010.28 1010.29 1010.29 1010.29 1010.31 1010.34 1010.37 1010.39 1010.39 1010.35 1010.26 1010.13 1009.96 1009.75 1009.52 1009.27 1009.01 1008.74 1008.45 1008.14 1007.80 1007.40 1006.95 1006.43 1005.85 1005.22 1004.57 1003.93 1003.32 1002.80 1002.40 1002.13 1002.02 1002.06 1002.25 1002.55
1008.95 1009.41 1009.82 1010.16 1010.42 1010.60 1010.71 1010.76 1010.76 1010.73 1010.69 1010.64 1010.61 1010.57 1010.53 1010.49 1010.43 1010.34 1010.21 1010.06 1009.87 1009.67 1009.44 1009.21 1008.96 1008.70 1008.42 1008.11 1007.75 1007.32 1006.83 1006.25 1005.61 1004.90 1004.17 1003.45 1002.76 1002.17 1001.69 1001.37 1001.21 1001.22 1001.38 1001.67
1009.56 1009.99 1010.37 1010.68 1010.91 1011.07 1011.15 1011.17 1011.14 1011.08 1010.99 1010.89 1010.79 1010.68 1010.57 1010.44 1010.31 1010.15 1009.98 1009.80 1009.59 1009.38 1009.17 1008.95 1008.73 1008.50 1008.24 1007.94 1007.58 1007.14 1006.62 1006.01 1005.32 1004.57 1003.78 1002.99 1002.25 1001.59 1001.06 1000.69 1000.48 1000.46 1000.59 1000.87
1010.06 1010.45 1010.79 1011.06 1011.26 1011.39 1011.45 1011.44 1011.39 1011.29 1011.16 1011.01 1010.84 1010.67 1010.48 1010.28 1010.08 1009.86 1009.64 1009.43 1009.21 1009.00 1008.80 1008.61 1008.42 1008.21 1007.98 1007.69 1007.34 1006.91 1006.38 1005.75 1005.03 1004.24 1003.41 1002.58 1001.79 1001.09 1000.52 1000.11 999.87 999.81 999.92 1000.18
1010.44 1010.78 1011.06 1011.29 1011.46 1011.56 1011.59 1011.56 1011.48 1011.36 1011.19 1011.00 1010.78 1010.54 1010.29 1010.04 1009.78 1009.52 1009.27 1009.04 1008.83 1008.63 1008.45 1008.29 1008.13 1007.95 1007.74 1007.48 1007.13 1006.70 1006.15 1005.51 1004.77 1003.95 1003.10 1002.24 1001.43 1000.70 1000.11 999.66 999.40 999.32 999.41 999.64
1010.71 1010.98 1011.21 1011.39 1011.52 1011.58 1011.58 1011.53 1011.43 1011.27 1011.08 1010.85 1010.59 1010.31 1010.02 1009.73 1009.45 1009.18 1008.93 1008.70 1008.51 1008.35 1008.21 1008.08 1007.96 1007.81 1007.63 1007.37 1007.03 1006.59 1006.03 1005.37 1004.61 1003.78 1002.90 1002.03 1001.21 1000.47 999.86 999.41 999.12 999.02 999.09 999.30
1010.88 1011.09 1011.25 1011.38 1011.45 1011.47 1011.44 1011.35 1011.22 1011.03 1010.81 1010.55 1010.27 1009.97 1009.67 1009.37 1009.09 1008.84 1008.62 1008.44 1008.30 1008.20 1008.12 1008.05 1007.97 1007.86 1007.69 1007.45 1007.10 1006.65 1006.08 1005.39 1004.62 1003.77 1002.88 1002.01 1001.18 1000.44 999.83 999.37 999.08 998.96 999.00 999.18
1010.96 1011.10 1011.20 1011.26 1011.28 1011.25 1011.17 1011.04 1010.87 1010.65 1010.39 1010.11 1009.81 1009.51 1009.22 1008.95 1008.71 1008.52 1008.37 1008.27 1008.21 1008.19 1008.19 1008.19 1008.17 1008.11 1007.97 1007.73 1007.38 1006.91 1006.32 1005.62 1004.82 1003.97 1003.08 1002.20 1001.39 1000.66 1000.06 999.60 999.31 999.17 999.19 999.32
1010.95 1011.02 1011.05 1011.05 1011.00 1010.92 1010.78 1010.60 1010.38 1010.13 1009.85 1009.55 1009.25 1008.96 1008.70 1008.48 1008.32 1008.21 1008.16 1008.17 1008.22 1008.31 1008.41 1008.50 1008.55 1008.53 1008.43 1008.20 1007.86 1007.38 1006.77 1006.05 1005.25 1004.38 1003.50 1002.64 1001.84 1001.13 1000.55 1000.10 999.81 999.65 999.64 999.73
1010.85 1010.85 1010.82 1010.75 1010.65 1010.50 1010.31 1010.07 1009.81 1009.52 1009.21 1008.90 1008.61 1008.35 1008.14 1008.00 1007.92 1007.92 1007.99 1008.12 1008.31 1008.52 1008.73 1008.92 1009.05 1009.09 1009.02 1008.82 1008.48 1007.99 1007.38 1006.66 1005.86 1005.00 1004.13 1003.30 1002.52 1001.85 1001.29 1000.86 1000.56 1000.39 1000.34 1000.38
1010.67 1010.61 1010.52 1010.39 1010.23 1010.03 1009.79 1009.51 1009.20 1008.88 1008.56 1008.26 1007.99 1007.77 1007.63 1007.56 1007.58 1007.69 1007.89 1008.15 1008.46 1008.79 1009.12 1009.39 1009.60 1009.70 1009.67 1009.50 1009.17 1008.70 1008.10 1007.39 1006.60 1005.77 1004.93 1004.13 1003.40 1002.76 1002.23 1001.82 1001.53 1001.35 1001.26 1001.24
1010.44 1010.33 1010.19 1010.02 1009.82 1009.58 1009.30 1008.99 1008.67 1008.34 1008.03 1007.74 1007.50 1007.34 1007.26 1007.27 1007.39 1007.60 1007.90 1008.27 1008.69 1009.12 1009.53 1009.88 1010.15 1010.30 1010.31 1010.16 1009.86 1009.42 1008.84 1008.16 1007.40 1006.61 1005.82 1005.07 1004.39 1003.80 1003.30 1002.92 1002.63 1002.44 1002.31 1002.24
Thickness
5775 5775 5767 5767 5776 5785 5782 5783 5773 5777 5781 5787 5792 5792 5792 5793 5790 5786 5782 5777 5773 5768 5762 5757 5752 5748 5743 5738 5735 5730 5723 5717 5712 5707 5702 5697 5692 5687 5682 5677 5672 5667 5661 5656
5768 5777 5775 5773 5784 5788 5789 5790 5785 5783 5782 5797 5798 5796 5791 5790 5787 5782 5779 5776 5773 5768 5762 5755 5750 5745 5740 5736 5732 5726 5719 5714 5710 5705 5699 5694 5689 5684 5679 5673 5668 5662 5656 5650
5755 5772 5769 5755 5775 5784 5785 5790 5786 5775 5781 5792 5788 5786 5785 5786 5784 5781 5779 5777 5773 5768 5762 5756 5751 5745 5739 5735 5730 5724 5717 5711 5707 5701 5695 5690 5686 5681 5674 5669 5663 5657 5651 5645
5755 5756 5738 5767 5790 5788 5781 5784 5787 5786 5788 5789 5786 5788 5789 5788 5784 5780 5779 5776 5773 5769 5764 5759 5754 5747 5740 5735 5727 5721 5714 5709 5704 5698 5693 5687 5682 5676 5670 5664 5657 5651 5646 5640
5751 5746 5752 5771 5777 5776 5766 5765 5781 5779 5780 5784 5786 5782 5781 5786 5784 5780 5779 5778 5775 5772 5768 5761 5755 5748 5739 5731 5725 5718 5712 5707 5702 5696 5689 5683 5676 5670 5665 5658 5651 5646 5640 5635
5748 5739 5736 5756 5767 5775 5759 5739 5765 5769 5769 5772 5772 5756 5757 5775 5778 5777 5777 5776 5773 5771 5766 5759 5754 5748 5737 5728 5722 5715 5711 5706 5700 5694 5686 5678 5671 5664 5658 5652 5645 5640 5636 5630
5741 5740 5751 5759 5770 5764 5729 5724 5751 5760 5763 5763 5758 5757 5765 5773 5772 5771 5770 5769 5768 5765 5759 5755 5750 5743 5732 5725 5719 5715 5710 5704 5697 5690 5682 5674 5666 5659 5652 5646 5640 5635 5630 5625
5737 5725 5723 5749 5751 5736 5731 5746 5749 5752 5756 5755 5756 5759 5760 5760 5759 5759 5757 5758 5757 5752 5749 5748 5744 5735 5726 5719 5715 5709 5703 5696 5690 5684 5678 5672 5663 5655 5648 5641 5634 5630 5625 5621
5744 5737 5738 5743 5739 5741 5745 5741 5743 5745 5747 5748 5745 5744 5744 5743 5743 5743 5742 5742 5742 5739 5736 5734 5732 5727 5717 5713 5708 5701 5694 5688 5682 5676 5670 5664 5657 5650 5642 5636 5630 5627 5623 5619
5739 5734 5732 5735 5738 5741 5741 5738 5739 5738 5738 5736 5732 5730 5729 5727 5726 5726 5726 5726 5726 5724 5720 5718 5718 5715 5710 5706 5700 5692 5685 5679 5673 5666 5661 5656 5650 5646 5639 5634 5629 5624 5618 5613
5733 5726 5722 5721 5726 5730 5732 5732 5729 5727 5725 5722 5718 5715 5713 5711 5710 5709 5709 5709 5708 5706 5703 5702 5702 5700 5698 5694 5688 5681 5674 5668 5662 5658 5655 5649 5646 5642 5638 5633 5626 5618 5612 5606
5727 5729 5722 5712 5721 5725 5721 5717 5714 5711 5708 5707 5704 5700 5698 5696 5695 5694 5692 5692 5691 5689 5688 5687 5686 5684 5682 5679 5674 5667 5661 5657 5652 5649 5646 5644 5641 5639 5636 5629 5624 5617 5609 5602
5735 5734 5726 5721 5719 5717 5712 5708 5705 5700 5694 5690 5689 5687 5684 5681 5680 5679 5677 5676 5674 5673 5672 5671 5670 5667 5666 5663 5659 5653 5648 5645 5642 5640 5639 5637 5634 5630 5626 5623 5617 5611 5604 5597
5725 5721 5712 5708 5704 5704 5700 5697 5693 5688 5683 5679 5676 5673 5671 5668 5666 5663 5662 5661 5660 5658 5657 5655 5653 5650 5649 5647 5642 5638 5634 5633 5631 5630 5629 5627 5625 5622 5619 5614 5610 5608 5602 5594
5712 5708 5700 5695 5692 5688 5684 5681 5675 5670 5666 5664 5662 5659 5656 5653 5651 5649 5648 5647 5645 5642 5640 5638 5635 5633 5632 5630 5626 5622 5620 5619 5619 5618 5618 5617 5615 5612 5610 5607 5603 5600 5598 5594
5695 5692 5686 5679 5673 5669 5666 5662 5657 5654 5653 5650 5648 5646 5644 5641 5639 5637 5635 5633 5628 5625 5623 5621 5619 5617 5615 5612 5608 5607 5607 5606 5605 5605 5605 5605 5603 5601 5598 5596 5593 5590 5588 5586
5678 5670 5665 5660 5655 5652 5650 5648 5645 5642 5641 5638 5635 5634 5631 5628 5624 5622 5619 5617 5614 5611 5608 5606 5603 5601 5598 5594 5591 5591 5591 5592 5590 5590 5591 5590 5589 5587 5586 5584 5582 5580 5579 5579
5664 5656 5650 5645 5641 5638 5636 5635 5633 5630 5628 5625 5623 5620 5616 5612 5608 5606 5605 5603 5600 5597 5594 5591 5587 5583 5580 5577 5574 5572 5571 5572 5571 5571 5570 5571 5572 5572 5573 5573 5572 5570 5569 5569
5647 5642 5637 5634 5631 5628 5625 5623 5621 5618 5615 5612 5608 5605 5602 5598 5596 5593 5591 5587 5584 5581 5578 5575 5569 5566 5563 5559 5554 5552 5551 5551 5551 5551 5552 5552 5555 5557 5559 5560 5561 5560 5560 5560
5633 5630 5627 5624 5622 5618 5614 5611 5608 5605 5602 5599 5596 5592 5588 5585 5583 5579 5576 5572 5569 5565 5562 5557 5553 5548 5544 5540 5532 5532 5532 5531 5532 5533 5534 5536 5538 5541 5544 5546 5550 5551 5552 5551
5622 5618 5615 5612 5608 5605 5602 5599 5595 5591 5589 5587 5583 5579 5575 5573 5569 5566 5563 5560 5556 5551 5546 5541 5536 5529 5524 5516 5514 5516 5515 5514 5514 5515 5516 5519 5522 5526 5530 5535 5539 5541 5543 5543
5607 5604 5600 5597 5594 5591 5589 5586 5583 5581 5578 5575 5571 5567 5563 5560 5558 5555 5551 5546 5543 5534 5530 5527 5519 5508 5502 5499 5501 5501 5500 5499 5499 5500 5502 5505 5509 5514 5518 5523 5527 5529 5532 5533
5593 5589 5586 5583 5581 5578 5577 5575 5572 5570 5566 5562 5558 5555 5552 5550 5547 5542 5538 5534 5529 5519 5515 5509 5498 5491 5486 5488 5487 5485 5484 5483 5483 5485 5488 5492 5498 5503 5508 5513 5516 5519 5521 5523
5578 5576 5574 5572 5570 5567 5564 5564 5563 5559 5556 5553 5551 5548 5544 5541 5538 5534 5528 5519 5512 5506 5502 5492 5485 5479 5476 5476 5473 5470 5468 5468 5470 5472 5475 5480 5486 5492 5498 5503 5507 5509 5512 5514
5566 5564 5562 5560 5557 5557 5556 5554 5552 5550 5547 5546 5543 5539 5536 5531 5526 5522 5516 5509 5501 5496 5491 5483 5475 5469 5467 5464 5460 5457 5455 5455 5456 5460 5465 5469 5475 5481 5487 5492 5497 5500 5503 5505
5556 5554 5554 5550 5548 5545 5545 5543 5541 5539 5536 5533 5530 5528 5525 5521 5516 5511 5505 5499 5492 5484 5478 5472 5466 5460 5456 5453 5449 5447 5446 5447 5449 5452 5456 5461 5466 5472 5478 5483 5487 5491 5494 5497
5546 5544 5542 5541 5540 5538 5535 5532 5528 5526 5524 5521 5518 5516 5513 5509 5504 5499 5494 5488 5480 5473 5466 5460 5455 5450 5446 5443 5440 5439 5439 5440 5442 5445 5449 5454 5459 5464 5470 5475 5480 5484 5487 5490